TimeEST,TemperatureF,Dew PointF,Humidity,Sea Level PressureIn,VisibilityMPH,Wind Direction,Wind SpeedMPH,Gust SpeedMPH,PrecipitationIn,Events,Conditions,WindDirDegrees,DateUTC
12:55 AM,9.0,3.0,77,29.97,9.0,WSW,11.5,-,0.00,,Overcast,240,2013-12-11 05:55:00
1:55 AM,9.0,3.0,77,29.98,3.0,WSW,16.1,24.2,0.00,Snow,Light Snow,250,2013-12-11 06:55:00
2:24 AM,9.0,3.0,77,29.94,9.0,WSW,15.0,-,0.00,,Overcast,250,2013-12-11 07:24:00
2:42 AM,9.0,1.9,73,29.95,10.0,WSW,13.8,-,0.00,,Overcast,250,2013-12-11 07:42:00
2:55 AM,10.0,3.0,73,30.00,10.0,WSW,15.0,-,0.00,,Overcast,250,2013-12-11 07:55:00
3:07 AM,10.9,3.9,73,29.97,10.0,WSW,13.8,24.2,N/A,,Overcast,250,2013-12-11 08:07:00
3:16 AM,10.9,3.9,73,29.96,9.0,West,19.6,-,N/A,,Overcast,260,2013-12-11 08:16:00
3:26 AM,10.9,3.9,73,29.97,10.0,WSW,13.8,23.0,N/A,,Overcast,250,2013-12-11 08:26:00
3:55 AM,10.9,5.0,77,30.02,5.0,West,20.7,27.6,0.00,Snow,Light Snow,260,2013-12-11 08:55:00
4:55 AM,10.9,3.9,73,30.03,8.0,WSW,12.7,25.3,0.00,,Overcast,250,2013-12-11 09:55:00
5:22 AM,10.0,3.9,76,30.00,5.0,WSW,19.6,25.3,0.00,Snow,Light Snow,250,2013-12-11 10:22:00
5:41 AM,7.0,1.9,80,30.01,10.0,SW,12.7,-,0.00,,Mostly Cloudy,230,2013-12-11 10:41:00
5:55 AM,7.0,1.0,77,30.06,10.0,SW,13.8,-,0.00,,Overcast,230,2013-12-11 10:55:00
6:55 AM,8.1,3.0,80,30.07,10.0,West,12.7,-,0.00,,Overcast,260,2013-12-11 11:55:00
7:11 AM,9.0,3.0,77,30.03,2.5,West,16.1,25.3,0.00,Snow,Light Snow,260,2013-12-11 12:11:00
7:17 AM,9.0,3.9,80,30.03,0.8,WSW,16.1,25.3,0.00,Snow,Light Snow,250,2013-12-11 12:17:00
7:30 AM,10.0,3.9,76,30.04,1.0,WSW,17.3,26.5,0.00,Snow,Light Snow,250,2013-12-11 12:30:00
7:55 AM,10.0,5.0,80,30.09,1.2,WSW,11.5,23.0,0.01,Snow,Light Snow,250,2013-12-11 12:55:00
8:02 AM,10.0,5.0,80,30.05,0.8,WSW,12.7,-,0.00,Snow,Light Snow,250,2013-12-11 13:02:00
8:33 AM,9.0,5.0,84,30.07,0.5,Variable,4.6,-,0.01,Fog-Snow,Snow,0,2013-12-11 13:33:00
8:55 AM,7.0,3.0,84,30.13,0.2,East,3.5,-,0.02,Fog-Snow,Heavy Snow,90,2013-12-11 13:55:00
9:15 AM,7.0,1.9,80,30.10,0.2,NE,9.2,-,0.02,Snow,Heavy Snow,50,2013-12-11 14:15:00
9:55 AM,5.0,1.0,84,30.16,0.2,NE,6.9,-,0.06,Fog-Snow,Snow,50,2013-12-11 14:55:00
10:33 AM,6.1,-0.0,76,30.13,0.8,ENE,5.8,-,0.02,Snow,Light Snow,60,2013-12-11 15:33:00
10:42 AM,6.1,1.0,80,30.14,0.8,ENE,6.9,-,0.02,Snow,Light Snow,60,2013-12-11 15:42:00
10:55 AM,5.0,-0.0,80,30.19,1.0,NE,6.9,-,0.02,Snow,Light Snow,50,2013-12-11 15:55:00
11:05 AM,5.0,-0.0,80,30.15,0.8,East,6.9,-,0.00,Snow,Light Snow,90,2013-12-11 16:05:00
11:18 AM,5.0,-0.0,80,30.16,1.2,ENE,5.8,-,0.00,Snow,Light Snow,60,2013-12-11 16:18:00
11:43 AM,5.0,-0.0,80,30.15,0.8,NE,6.9,-,0.01,Snow,Light Snow,50,2013-12-11 16:43:00
11:55 AM,5.0,-0.0,80,30.20,1.0,ENE,8.1,-,0.01,Snow,Light Snow,60,2013-12-11 16:55:00
12:48 PM,6.1,-0.9,73,30.15,2.5,ENE,5.8,-,0.00,Snow,Light Snow,70,2013-12-11 17:48:00
12:55 PM,6.1,-0.9,73,30.20,2.5,NE,5.8,-,0.00,Snow,Light Snow,50,2013-12-11 17:55:00
1:46 PM,7.0,-0.0,73,30.15,3.0,Calm,Calm,-,0.00,Snow,Light Snow,0,2013-12-11 18:46:00
1:55 PM,7.0,-0.0,73,30.20,2.5,North,3.5,-,0.00,Snow,Light Snow,10,2013-12-11 18:55:00
2:10 PM,7.0,1.0,77,30.16,4.0,Calm,Calm,-,0.00,Snow,Light Snow,0,2013-12-11 19:10:00
2:23 PM,8.1,1.0,73,30.16,3.0,Calm,Calm,-,0.00,Snow,Light Snow,0,2013-12-11 19:23:00
2:30 PM,8.1,1.0,73,30.16,2.0,East,3.5,-,0.00,Snow,Light Snow,80,2013-12-11 19:30:00
2:36 PM,8.1,1.0,73,30.16,1.8,Calm,Calm,-,0.00,Snow,Light Snow,0,2013-12-11 19:36:00
2:55 PM,8.1,1.9,76,30.20,1.5,East,3.5,-,0.00,Snow,Light Snow,80,2013-12-11 19:55:00
3:34 PM,7.0,1.9,80,30.17,0.8,Calm,Calm,-,0.00,Snow,Light Snow,0,2013-12-11 20:34:00
3:55 PM,7.0,1.9,80,30.21,0.8,East,3.5,-,0.01,Snow,Light Snow,90,2013-12-11 20:55:00
4:02 PM,7.0,1.9,80,30.16,1.8,East,3.5,-,0.00,Snow,Light Snow,90,2013-12-11 21:02:00
4:18 PM,7.0,1.9,80,30.16,0.5,Calm,Calm,-,0.00,Snow,Snow,0,2013-12-11 21:18:00
4:34 PM,7.0,3.0,84,30.17,1.2,Calm,Calm,-,0.00,Snow,Light Snow,0,2013-12-11 21:34:00
4:41 PM,7.0,3.0,84,30.17,0.5,Calm,Calm,-,0.01,Fog-Snow,Snow,0,2013-12-11 21:41:00
4:53 PM,6.8,3.2,85,30.17,0.8,SE,3.5,-,0.01,Snow,Light Snow,130,2013-12-11 21:53:00
4:55 PM,7.0,3.0,84,30.22,0.8,ESE,3.5,-,0.01,Snow,Light Snow,120,2013-12-11 21:55:00
5:08 PM,7.0,3.9,87,30.17,0.5,Calm,Calm,-,0.02,Fog-Snow,Snow,0,2013-12-11 22:08:00
5:53 PM,8.6,3.2,79,30.18,1.2,ENE,4.6,-,0.05,Snow,Light Snow,70,2013-12-11 22:53:00
5:55 PM,8.1,3.9,83,30.23,1.0,East,4.6,-,0.05,Snow,Light Snow,80,2013-12-11 22:55:00
6:05 PM,8.1,3.9,83,30.18,0.8,East,4.6,-,0.01,Snow,Light Snow,100,2013-12-11 23:05:00
6:09 PM,8.1,3.9,83,30.18,1.0,East,4.6,-,0.01,Snow,Light Snow,90,2013-12-11 23:09:00
6:35 PM,9.0,5.0,84,30.18,0.8,East,3.5,-,0.02,Snow,Light Snow,80,2013-12-11 23:35:00
6:44 PM,8.1,5.0,87,30.18,0.8,ENE,4.6,-,0.02,Snow,Light Snow,60,2013-12-11 23:44:00
6:55 PM,8.1,3.9,83,30.23,1.2,Variable,3.5,-,0.02,Snow,Light Snow,0,2013-12-11 23:55:00
7:05 PM,8.1,5.0,87,30.19,0.5,Calm,Calm,-,0.01,Fog-Snow,Snow,0,2013-12-12 00:05:00
7:32 PM,9.0,3.9,80,30.20,2.0,WSW,11.5,19.6,0.02,Snow,Light Snow,240,2013-12-12 00:32:00
7:36 PM,8.1,3.0,80,30.20,4.0,WSW,12.7,19.6,0.02,Snow,Light Snow,240,2013-12-12 00:36:00
7:55 PM,7.0,1.9,80,30.25,9.0,SW,13.8,-,0.02,,Overcast,230,2013-12-12 00:55:00
8:14 PM,7.0,1.9,80,30.20,6.0,WSW,16.1,-,N/A,,Haze,240,2013-12-12 01:14:00
8:55 PM,6.1,1.0,80,30.26,2.5,WSW,15.0,25.3,0.01,Snow,Light Snow,240,2013-12-12 01:55:00
9:07 PM,6.1,-0.0,76,30.21,1.5,SW,19.6,26.5,0.00,Snow,Light Snow,230,2013-12-12 02:07:00
9:15 PM,5.0,-0.0,80,30.21,3.0,WSW,18.4,-,0.00,Snow,Light Snow,240,2013-12-12 02:15:00
9:35 PM,5.0,-0.0,80,30.21,2.5,SW,16.1,-,0.00,Snow,Light Snow,230,2013-12-12 02:35:00
9:45 PM,5.0,-0.0,80,30.21,3.0,SW,17.3,-,0.00,Snow,Light Snow,230,2013-12-12 02:45:00
9:55 PM,5.0,-0.0,80,30.26,2.0,SW,18.4,24.2,0.00,Snow,Light Snow,230,2013-12-12 02:55:00
10:03 PM,5.0,-0.0,80,30.20,1.8,WSW,17.3,24.2,0.00,Snow,Light Snow,240,2013-12-12 03:03:00
10:12 PM,5.0,-0.9,76,30.20,2.5,WSW,15.0,-,0.00,Snow,Light Snow,240,2013-12-12 03:12:00
10:22 PM,5.0,-2.0,73,30.20,5.0,SW,17.3,-,0.00,Snow,Light Snow,230,2013-12-12 03:22:00
10:53 PM,3.2,-2.2,78,30.19,9.0,WSW,18.4,25.3,0.00,,Scattered Clouds,240,2013-12-12 03:53:00
10:55 PM,3.9,-2.9,73,30.24,9.0,WSW,17.3,25.3,0.00,,Partly Cloudy,240,2013-12-12 03:55:00
11:55 PM,3.0,-5.1,69,30.24,10.0,WSW,17.3,-,N/A,,Clear,240,2013-12-12 04:55:00